Location: Ebersheim
(48.3033°N, 7.4991°E)
Time: 04:38:57
(UTC+00:00)

Cosmos 1346 Rocket - Pass Details

Date: 27 February 2020
Orbit: 527 x 552 km, 81.2° (Epoch: 02 April)

Event Time Altitude Azimuth Distance (km) Brightness Sun altitude
Rises 18:03:18 0° 191° (S) 2,692 6.5 -9.6°
Reaches altitude 10° 18:05:27 10° 192° (SSW) 1,800 5.6 -10.0°
Maximum altitude 18:09:25 86° 279° (W) 547 2.8 -10.6°
Drops below altitude 10° 18:13:23 10° 11° (N) 1,800 5.3 -11.3°
Sets 18:15:33 0° 12° (NNE) 2,692 6.2 -11.7°
